Starlink 5998

operational
NORAD ID: 56468 Int'l Des: 2023-064 Owner: SPXS Country: US Constellation: starlink
LEOCIRCULAR

About Starlink 5998

Description loading...

Live Position

Loading 3D Globe...

Upcoming Passes

Altitude History

Altitude vs Time

uPlot chart will show altitude changes over time

Two-Line Element Set

1 56468U 23064W 25348.32412517 .00000929 00000-0 85651-4 0 9990
2 56468 70.0001 359.5092 0002940 270.7329 89.3493 14.98322826142465
Epoch: Dec 14, 2025 • Age: 13 hours

Current Status

Altitude 574.3 km
Velocity 7.57 km/s
Sub-Earth Point 3.07°N, 33.66°W
Launch Date May 10, 2023
Age 2.5 years
Type internet

Technical Details

Classification Payload
Mass 305.00 kg
Dry Mass 290.00 kg
Total Mass 305.00 kg
Length 0.20 m
Diameter 2.80 m
Span 9.00 m
Shape Box + pan
Manufacturer SPXS
Bus Type Starlink
Phase Status In Orbit
Owner/State SPXS/US

Large Constellations

Loading constellations...